• In Hungary
  • List of Countries
  • For 7 days
  • Water Temperature
  • Satellite Maps
  • Weather Map
  • News
  • Weather Widgets
  • user-avatar
    Login

    Hourly Weather Boyary 1

    Today, 22 October, Monday

    Time Temperature Precipitation Wind Pressure Humidity
    00:00 +4°C° 0 mm 2 mps 757 mmHg 90%
    01:00 +4°C° 0 mm 2 mps 757 mmHg 91%
    02:00 +3°C° 0 mm 3 mps 757 mmHg 92%
    03:00 +2°C° 0 mm 3 mps 756 mmHg 92%
    04:00 +2°C° 0 mm 3 mps 756 mmHg 92%
    05:00 +2°C° 0 mm 3 mps 756 mmHg 92%
    06:00 +3°C° 0 mm 3 mps 755 mmHg 91%
    07:00 +3°C° 0 mm 4 mps 755 mmHg 90%
    08:00 +2°C° 0 mm 5 mps 755 mmHg 87%
    09:00 +5°C° 0 mm 5 mps 754 mmHg 81%
    10:00 +6°C° 0 mm 5 mps 754 mmHg 76%
    11:00 +8°C° 0 mm 5 mps 753 mmHg 70%
    12:00 +8°C° 0 mm 5 mps 753 mmHg 69%
    13:00 +9°C° 0 mm 5 mps 752 mmHg 67%
    14:00 +9°C° 0 mm 5 mps 751 mmHg 66%
    15:00 +9°C° 0 mm 5 mps 751 mmHg 69%
    16:00 +8°C° 0 mm 5 mps 750 mmHg 71%
    17:00 +7°C° 0 mm 5 mps 750 mmHg 74%
    18:00 +7°C° 0.4 mm 5 mps 750 mmHg 77%
    19:00 +7°C° 0.4 mm 5 mps 749 mmHg 81%
    20:00 +7°C° 0.4 mm 5 mps 749 mmHg 85%
    21:00 +7°C° 0.5 mm 4 mps 749 mmHg 86%
    22:00 +7°C° 0.5 mm 4 mps 748 mmHg 88%
    23:00 +6°C° 0.5 mm 4 mps 748 mmHg 89%

    Tomorrow, 23 October, Tuesday

    Time Temperature Precipitation Wind Pressure Humidity
    00:00 +6°C° 0 mm 4 mps 748 mmHg 91%
    01:00 +5°C° 0 mm 3 mps 748 mmHg 92%
    02:00 +4°C° 0 mm 3 mps 748 mmHg 93%
    03:00 +3°C° 0 mm 3 mps 747 mmHg 94%
    04:00 +3°C° 0 mm 3 mps 747 mmHg 94%
    05:00 +2°C° 0 mm 3 mps 746 mmHg 94%
    06:00 +2°C° 0 mm 3 mps 746 mmHg 93%
    07:00 +2°C° 0 mm 3 mps 745 mmHg 91%
    08:00 +2°C° 0 mm 3 mps 745 mmHg 90%
    09:00 +3°C° 0 mm 4 mps 744 mmHg 85%
    10:00 +5°C° 0 mm 4 mps 743 mmHg 81%
    11:00 +6°C° 0 mm 5 mps 742 mmHg 77%
    12:00 +6°C° 0.1 mm 5 mps 740 mmHg 75%
    13:00 +5°C° 0.1 mm 6 mps 739 mmHg 73%
    14:00 +5°C° 0.1 mm 7 mps 738 mmHg 71%
    15:00 +5°C° 0.1 mm 7 mps 736 mmHg 73%
    16:00 +4°C° 0.1 mm 7 mps 735 mmHg 76%
    17:00 +4°C° 0.1 mm 7 mps 733 mmHg 78%
    18:00 +4°C° 0.7 mm 7 mps 732 mmHg 80%
    19:00 +3°C° 0.7 mm 7 mps 730 mmHg 82%
    20:00 +3°C° 0.7 mm 7 mps 729 mmHg 84%
    21:00 +4°C° 0.5 mm 6 mps 728 mmHg 86%
    22:00 +5°C° 0.5 mm 5 mps 727 mmHg 88%
    23:00 +5°C° 0.5 mm 5 mps 726 mmHg 90%

    Day after tomorrow, 24 October, Wednesday

    Time Temperature Precipitation Wind Pressure Humidity
    00:00 +5°C° 0.1 mm 5 mps 726 mmHg 90%
    01:00 +5°C° 0.1 mm 4 mps 725 mmHg 90%
    02:00 +5°C° 0.1 mm 4 mps 724 mmHg 90%
    03:00 +5°C° 0.1 mm 4 mps 724 mmHg 90%
    04:00 +5°C° 0.1 mm 4 mps 724 mmHg 90%
    05:00 +4°C° 0.1 mm 3 mps 723 mmHg 90%
    06:00 +4°C° 0.4 mm 3 mps 724 mmHg 90%
    07:00 +4°C° 0.4 mm 3 mps 724 mmHg 90%
    08:00 +4°C° 0.4 mm 3 mps 724 mmHg 90%
    09:00 +4°C° 0.1 mm 3 mps 724 mmHg 86%
    10:00 +5°C° 0.1 mm 4 mps 724 mmHg 82%
    11:00 +5°C° 0.1 mm 4 mps 725 mmHg 78%
    12:00 +7°C° 0 mm 3 mps 725 mmHg 76%
    13:00 +7°C° 0 mm 3 mps 725 mmHg 75%
    14:00 +7°C° 0 mm 3 mps 726 mmHg 74%
    15:00 +5°C° 0 mm 3 mps 726 mmHg 77%
    16:00 +5°C° 0 mm 3 mps 727 mmHg 79%
    17:00 +5°C° 0 mm 3 mps 728 mmHg 82%
    18:00 +5°C° 0.2 mm 3 mps 728 mmHg 84%
    19:00 +4°C° 0.2 mm 4 mps 729 mmHg 86%
    20:00 +4°C° 0.2 mm 4 mps 730 mmHg 87%
    21:00 +3°C° 0.1 mm 5 mps 731 mmHg 86%
    22:00 +3°C° 0.1 mm 5 mps 731 mmHg 85%
    23:00 +3°C° 0.1 mm 6 mps 732 mmHg 84%

    25 October, Thursday

    Time Temperature Precipitation Wind Pressure Humidity
    00:00 +3°C° 0 mm 6 mps 732 mmHg 83%
    01:00 +3°C° 0 mm 6 mps 733 mmHg 83%
    02:00 +2°C° 0 mm 6 mps 734 mmHg 82%
    03:00 +2°C° 0 mm 6 mps 734 mmHg 84%
    04:00 +1°C° 0 mm 5 mps 734 mmHg 86%
    05:00 0°C° 0 mm 5 mps 734 mmHg 87%
    06:00 +1°C° 0 mm 5 mps 734 mmHg 87%
    07:00 +1°C° 0 mm 5 mps 734 mmHg 86%
    08:00 +1°C° 0 mm 5 mps 735 mmHg 85%
    09:00 +2°C° 0 mm 5 mps 735 mmHg 83%
    10:00 +3°C° 0 mm 4 mps 734 mmHg 80%
    11:00 +4°C° 0 mm 4 mps 734 mmHg 78%
    12:00 +4°C° 0 mm 4 mps 734 mmHg 75%
    13:00 +4°C° 0 mm 3 mps 734 mmHg 72%
    14:00 +5°C° 0 mm 3 mps 734 mmHg 69%
    15:00 +4°C° 0 mm 3 mps 734 mmHg 73%
    16:00 +4°C° 0 mm 2 mps 734 mmHg 77%
    17:00 +4°C° 0 mm 2 mps 734 mmHg 81%
    18:00 +3°C° 0 mm 2 mps 734 mmHg 84%
    19:00 +3°C° 0 mm 2 mps 735 mmHg 87%
    20:00 +2°C° 0 mm 2 mps 735 mmHg 90%
    21:00 +2°C° 0 mm 2 mps 735 mmHg 90%
    22:00 +1°C° 0 mm 3 mps 736 mmHg 91%
    23:00 +1°C° 0 mm 3 mps 736 mmHg 92%

    26 October, Friday

    Time Temperature Precipitation Wind Pressure Humidity
    00:00 +1°C° 0 mm 3 mps 736 mmHg 93%
    01:00 0°C° 0 mm 3 mps 737 mmHg 93%
    02:00 0°C° 0 mm 3 mps 737 mmHg 94%
    03:00 0°C° 0 mm 3 mps 737 mmHg 94%
    04:00 0°C° 0 mm 3 mps 738 mmHg 95%
    05:00 0°C° 0 mm 3 mps 738 mmHg 95%
    06:00 0°C° 0 mm 3 mps 738 mmHg 95%
    07:00 0°C° 0 mm 3 mps 738 mmHg 94%
    08:00 0°C° 0 mm 3 mps 739 mmHg 94%
    09:00 0°C° 0 mm 4 mps 739 mmHg 88%
    10:00 +3°C° 0 mm 4 mps 739 mmHg 82%
    11:00 +4°C° 0 mm 4 mps 740 mmHg 76%
    12:00 +5°C° 0 mm 4 mps 740 mmHg 74%
    13:00 +5°C° 0 mm 4 mps 740 mmHg 73%
    14:00 +5°C° 0 mm 4 mps 740 mmHg 71%
    15:00 +5°C° 0 mm 4 mps 741 mmHg 74%
    16:00 +4°C° 0 mm 3 mps 741 mmHg 77%
    17:00 +4°C° 0 mm 3 mps 741 mmHg 80%
    18:00 +4°C° 0 mm 2 mps 741 mmHg 84%
    19:00 +3°C° 0 mm 2 mps 742 mmHg 87%
    20:00 +3°C° 0 mm 2 mps 742 mmHg 91%
    21:00 +2°C° 0 mm 2 mps 742 mmHg 92%
    22:00 +2°C° 0 mm 2 mps 742 mmHg 93%
    23:00 +2°C° 0 mm 2 mps 743 mmHg 94%

    27 October, Saturday

    Time Temperature Precipitation Wind Pressure Humidity
    00:00 +2°C° 0 mm 2 mps 743 mmHg 94%
    01:00 +2°C° 0 mm 2 mps 742 mmHg 94%
    02:00 +1°C° 0 mm 3 mps 742 mmHg 93%
    03:00 +1°C° 0 mm 3 mps 742 mmHg 93%
    04:00 +1°C° 0 mm 4 mps 742 mmHg 93%
    05:00 +1°C° 0 mm 4 mps 741 mmHg 93%
    06:00 +2°C° 0.3 mm 5 mps 741 mmHg 90%
    07:00 +2°C° 0.3 mm 5 mps 740 mmHg 88%
    08:00 +3°C° 0.3 mm 6 mps 740 mmHg 85%
    09:00 +3°C° 0.6 mm 6 mps 739 mmHg 85%
    10:00 +4°C° 0.6 mm 6 mps 739 mmHg 86%
    11:00 +5°C° 0.6 mm 7 mps 739 mmHg 86%
    12:00 +5°C° 0.2 mm 6 mps 739 mmHg 86%
    13:00 +7°C° 0.2 mm 6 mps 738 mmHg 87%
    14:00 +7°C° 0.2 mm 6 mps 738 mmHg 87%
    15:00 +7°C° 0.1 mm 5 mps 738 mmHg 88%
    16:00 +7°C° 0.1 mm 5 mps 739 mmHg 89%
    17:00 +7°C° 0.1 mm 4 mps 739 mmHg 90%
    18:00 +7°C° 0.1 mm 4 mps 739 mmHg 91%
    19:00 +7°C° 0.1 mm 3 mps 739 mmHg 92%
    20:00 +7°C° 0.1 mm 3 mps 739 mmHg 93%
    21:00 +7°C° 0 mm 3 mps 740 mmHg 94%
    22:00 +6°C° 0 mm 2 mps 740 mmHg 94%
    23:00 +6°C° 0 mm 2 mps 740 mmHg 94%

    28 October, Sunday

    Time Temperature Precipitation Wind Pressure Humidity
    00:00 +6°C° 0 mm 2 mps 740 mmHg 94%
    01:00 +5°C° 0 mm 2 mps 740 mmHg 94%
    02:00 +5°C° 0 mm 2 mps 740 mmHg 94%
    03:00 +5°C° 0 mm 2 mps 740 mmHg 94%
    04:00 +5°C° 0 mm 2 mps 740 mmHg 94%
    05:00 +5°C° 0 mm 2 mps 740 mmHg 93%
    06:00 +6°C° 0.1 mm 1 mps 740 mmHg 92%
    07:00 +6°C° 0.1 mm 1 mps 740 mmHg 91%
    08:00 +6°C° 0.1 mm 1 mps 740 mmHg 90%
    09:00 +6°C° 0.3 mm 1 mps 740 mmHg 89%
    10:00 +7°C° 0.3 mm 1 mps 740 mmHg 88%
    11:00 +7°C° 0.3 mm 1 mps 740 mmHg 88%
    12:00 +7°C° 0.7 mm 1 mps 739 mmHg 88%
    13:00 +7°C° 0.7 mm 1 mps 739 mmHg 89%
    14:00 +7°C° 0.7 mm 1 mps 738 mmHg 89%
    15:00 +6°C° 0.4 mm 1 mps 738 mmHg 90%
    16:00 +5°C° 0.4 mm 2 mps 738 mmHg 91%
    17:00 +5°C° 0.4 mm 2 mps 738 mmHg 92%
    18:00 +5°C° 0.3 mm 2 mps 739 mmHg 91%
    19:00 +4°C° 0.3 mm 3 mps 739 mmHg 90%
    20:00 +3°C° 0.3 mm 3 mps 739 mmHg 89%
    21:00 +3°C° 0 mm 4 mps 740 mmHg 89%
    22:00 +3°C° 0 mm 4 mps 741 mmHg 89%
    23:00 +3°C° 0 mm 4 mps 741 mmHg 89%
    Show more